<?xml version="1.0" encoding="UTF-8" standalone="no" ?>
<gpx xmlns="http://www.topografix.com/GPX/1/1" xmlns:xsi="http://www.w3.org/2001/XMLSchema-instance" xsi:schemaLocation="http://www.topografix.com/GPX/1/1 http://www.topografix.com/GPX/1/1/gpx.xsd" version="1.1" creator="VisuGPX - https://www.visugpx.com">
  <metadata>
    <name>refuge coll del torn</name>
  </metadata>
  <wpt lat="42.58395" lon="2.06776">
    <ele>1835.1</ele>
    <name><![CDATA[Parking]]></name>
  </wpt>
  <wpt lat="42.58701" lon="2.05306">
    <ele>1774.2</ele>
    <name><![CDATA[Route]]></name>
  </wpt>
  <wpt lat="42.59159" lon="2.06028">
    <ele>1827.3</ele>
    <name><![CDATA[Bifurcation au panneau]]></name>
  </wpt>
  <wpt lat="42.59337" lon="2.05932">
    <ele>1896.3</ele>
    <name><![CDATA[Chemin de gauche]]></name>
  </wpt>
  <wpt lat="42.59408" lon="2.04965">
    <ele>1959.8</ele>
    <name><![CDATA[Chemin principal]]></name>
  </wpt>
  <wpt lat="42.59813" lon="2.03659">
    <ele>2210.1</ele>
    <name><![CDATA[Cabane]]></name>
  </wpt>
  <wpt lat="42.59987" lon="2.03327">
    <ele>2319.7</ele>
    <name><![CDATA[Fin de balisage]]></name>
  </wpt>
  <wpt lat="42.60464" lon="2.03085">
    <ele>2462.3</ele>
    <name><![CDATA[Pic Del Pam]]></name>
  </wpt>
  <wpt lat="42.60053" lon="2.02545">
    <ele>2424.5</ele>
    <name><![CDATA[Serra Dels Alarbs]]></name>
  </wpt>
  <wpt lat="42.59497" lon="2.01049">
    <ele>2196.8</ele>
    <name><![CDATA[GR]]></name>
  </wpt>
  <wpt lat="42.59027" lon="2.0121">
    <ele>2120.8</ele>
    <name><![CDATA[Obliquer à gauche]]></name>
  </wpt>
  <wpt lat="42.58807" lon="2.02018">
    <ele>2079</ele>
    <name><![CDATA[Lac Balmette]]></name>
  </wpt>
  <wpt lat="42.58919" lon="2.03815">
    <ele>1927.5</ele>
    <name><![CDATA[Changement de sentier]]></name>
  </wpt>
  <wpt lat="42.58389" lon="2.0679">
    <ele>1835.9</ele>
    <name><![CDATA[Parking]]></name>
  </wpt>
  <wpt lat="42.58526" lon="2.11876">
    <ele>1499.5</ele>
    <name><![CDATA[Parking Route de la Quillane]]></name>
  </wpt>
  <wpt lat="42.57512" lon="2.11298">
    <ele>1541.8</ele>
    <name><![CDATA[Barrage du Lac de Matemale]]></name>
  </wpt>
  <wpt lat="42.57395" lon="2.11302">
    <ele>1552.7</ele>
    <name><![CDATA[Abandon Route D118/Piste DFCI CA12]]></name>
  </wpt>
  <wpt lat="42.57863" lon="2.12093">
    <ele>1629</ele>
    <name><![CDATA[Intersection de pistes]]></name>
  </wpt>
  <wpt lat="42.57476" lon="2.11861">
    <ele>1673.8</ele>
    <name><![CDATA[Fin de piste]]></name>
  </wpt>
  <wpt lat="42.57491" lon="2.13175">
    <ele>1874.8</ele>
    <name><![CDATA[Refuge du Coll del Torn]]></name>
  </wpt>
  <wpt lat="42.59959" lon="2.13728">
    <ele>1758</ele>
    <name><![CDATA[Abandon Piste]]></name>
  </wpt>
  <wpt lat="42.59984" lon="2.13766">
    <ele>1752.7</ele>
    <name><![CDATA[Sentier balisé à gauche]]></name>
  </wpt>
  <wpt lat="42.6026" lon="2.13798">
    <ele>1721.2</ele>
    <name><![CDATA[Coll de Creu]]></name>
  </wpt>
  <wpt lat="42.60758" lon="2.13457">
    <ele>1625</ele>
    <name><![CDATA[°°GRP®°°Capcir]]></name>
  </wpt>
  <wpt lat="42.60381" lon="2.13013">
    <ele>1501.4</ele>
    <name><![CDATA[Intersection Tour de Creu]]></name>
  </wpt>
  <wpt lat="42.59275" lon="2.12262">
    <ele>1480.2</ele>
    <name><![CDATA[Route à gauche]]></name>
  </wpt>
  <wpt lat="42.58522" lon="2.11875">
    <ele>1499.5</ele>
    <name><![CDATA[Parking Route de la Quillane]]></name>
  </wpt>
  <trk>
    <name><![CDATA[Le Refuge du Coll del Torn]]></name>
    <trkseg>
      <trkpt lat="42.58526" lon="2.11876">
        <ele>1493</ele>
        <time>2020-07-03T09:28:51 02:00</time>
      </trkpt>
      <trkpt lat="42.58486" lon="2.11863">
        <ele>1497</ele>
        <time>2020-07-03T09:28:56 02:00</time>
      </trkpt>
      <trkpt lat="42.58438" lon="2.11801">
        <ele>1500</ele>
        <time>2020-07-03T09:29:01 02:00</time>
      </trkpt>
      <trkpt lat="42.58389" lon="2.11743">
        <ele>1500</ele>
        <time>2020-07-03T09:29:06 02:00</time>
      </trkpt>
      <trkpt lat="42.58356" lon="2.11711">
        <ele>1501</ele>
        <time>2020-07-03T09:29:11 02:00</time>
      </trkpt>
      <trkpt lat="42.58309" lon="2.11682">
        <ele>1503</ele>
        <time>2020-07-03T09:29:16 02:00</time>
      </trkpt>
      <trkpt lat="42.58223" lon="2.11591">
        <ele>1503</ele>
        <time>2020-07-03T09:29:21 02:00</time>
      </trkpt>
      <trkpt lat="42.58121" lon="2.11493">
        <ele>1504</ele>
        <time>2020-07-03T09:29:26 02:00</time>
      </trkpt>
      <trkpt lat="42.58026" lon="2.1139">
        <ele>1510</ele>
        <time>2020-07-03T09:29:31 02:00</time>
      </trkpt>
      <trkpt lat="42.57972" lon="2.11358">
        <ele>1510</ele>
        <time>2020-07-03T09:29:36 02:00</time>
      </trkpt>
      <trkpt lat="42.57885" lon="2.11351">
        <ele>1510</ele>
        <time>2020-07-03T09:29:41 02:00</time>
      </trkpt>
      <trkpt lat="42.57838" lon="2.11347">
        <ele>1510</ele>
        <time>2020-07-03T09:29:46 02:00</time>
      </trkpt>
      <trkpt lat="42.5776" lon="2.11338">
        <ele>1510</ele>
        <time>2020-07-03T09:29:51 02:00</time>
      </trkpt>
      <trkpt lat="42.57724" lon="2.11316">
        <ele>1510</ele>
        <time>2020-07-03T09:29:56 02:00</time>
      </trkpt>
      <trkpt lat="42.57675" lon="2.11321">
        <ele>1512</ele>
        <time>2020-07-03T09:30:01 02:00</time>
      </trkpt>
      <trkpt lat="42.57627" lon="2.11296">
        <ele>1515</ele>
        <time>2020-07-03T09:30:06 02:00</time>
      </trkpt>
      <trkpt lat="42.57569" lon="2.1125">
        <ele>1519</ele>
        <time>2020-07-03T09:30:11 02:00</time>
      </trkpt>
      <trkpt lat="42.57517" lon="2.11278">
        <ele>1535</ele>
        <time>2020-07-03T09:30:16 02:00</time>
      </trkpt>
      <trkpt lat="42.57512" lon="2.11298">
        <ele>1540</ele>
        <time>2020-07-03T09:30:21 02:00</time>
      </trkpt>
      <trkpt lat="42.57487" lon="2.11283">
        <ele>1540</ele>
        <time>2020-07-03T09:30:26 02:00</time>
      </trkpt>
      <trkpt lat="42.57464" lon="2.11271">
        <ele>1541</ele>
        <time>2020-07-03T09:30:31 02:00</time>
      </trkpt>
      <trkpt lat="42.57446" lon="2.11283">
        <ele>1544</ele>
        <time>2020-07-03T09:30:36 02:00</time>
      </trkpt>
      <trkpt lat="42.57459" lon="2.11294">
        <ele>1545</ele>
        <time>2020-07-03T09:30:41 02:00</time>
      </trkpt>
      <trkpt lat="42.57395" lon="2.11302">
        <ele>1547</ele>
        <time>2020-07-03T09:30:46 02:00</time>
      </trkpt>
      <trkpt lat="42.57398" lon="2.11315">
        <ele>1549</ele>
        <time>2020-07-03T09:30:51 02:00</time>
      </trkpt>
      <trkpt lat="42.57449" lon="2.11328">
        <ele>1552</ele>
        <time>2020-07-03T09:30:56 02:00</time>
      </trkpt>
      <trkpt lat="42.57473" lon="2.11353">
        <ele>1553</ele>
        <time>2020-07-03T09:31:01 02:00</time>
      </trkpt>
      <trkpt lat="42.575" lon="2.11426">
        <ele>1559</ele>
        <time>2020-07-03T09:31:06 02:00</time>
      </trkpt>
      <trkpt lat="42.57548" lon="2.11493">
        <ele>1568</ele>
        <time>2020-07-03T09:31:11 02:00</time>
      </trkpt>
      <trkpt lat="42.5759" lon="2.11534">
        <ele>1571</ele>
        <time>2020-07-03T09:31:16 02:00</time>
      </trkpt>
      <trkpt lat="42.57619" lon="2.11567">
        <ele>1576</ele>
        <time>2020-07-03T09:31:21 02:00</time>
      </trkpt>
      <trkpt lat="42.57654" lon="2.11611">
        <ele>1580</ele>
        <time>2020-07-03T09:31:26 02:00</time>
      </trkpt>
      <trkpt lat="42.57684" lon="2.11648">
        <ele>1581</ele>
        <time>2020-07-03T09:31:31 02:00</time>
      </trkpt>
      <trkpt lat="42.57699" lon="2.11685">
        <ele>1585</ele>
        <time>2020-07-03T09:31:36 02:00</time>
      </trkpt>
      <trkpt lat="42.57725" lon="2.11776">
        <ele>1587</ele>
        <time>2020-07-03T09:31:41 02:00</time>
      </trkpt>
      <trkpt lat="42.57726" lon="2.11815">
        <ele>1591</ele>
        <time>2020-07-03T09:31:46 02:00</time>
      </trkpt>
      <trkpt lat="42.57714" lon="2.11873">
        <ele>1601</ele>
        <time>2020-07-03T09:31:51 02:00</time>
      </trkpt>
      <trkpt lat="42.57721" lon="2.119">
        <ele>1606</ele>
        <time>2020-07-03T09:31:56 02:00</time>
      </trkpt>
      <trkpt lat="42.57763" lon="2.11922">
        <ele>1605</ele>
        <time>2020-07-03T09:32:01 02:00</time>
      </trkpt>
      <trkpt lat="42.57797" lon="2.11979">
        <ele>1609</ele>
        <time>2020-07-03T09:32:06 02:00</time>
      </trkpt>
      <trkpt lat="42.57816" lon="2.12028">
        <ele>1613</ele>
        <time>2020-07-03T09:32:11 02:00</time>
      </trkpt>
      <trkpt lat="42.57833" lon="2.12067">
        <ele>1619</ele>
        <time>2020-07-03T09:32:16 02:00</time>
      </trkpt>
      <trkpt lat="42.57863" lon="2.12093">
        <ele>1622</ele>
        <time>2020-07-03T09:32:21 02:00</time>
      </trkpt>
      <trkpt lat="42.57849" lon="2.12097">
        <ele>1625</ele>
        <time>2020-07-03T09:32:26 02:00</time>
      </trkpt>
      <trkpt lat="42.57835" lon="2.12088">
        <ele>1624</ele>
        <time>2020-07-03T09:32:31 02:00</time>
      </trkpt>
      <trkpt lat="42.57807" lon="2.12082">
        <ele>1626</ele>
        <time>2020-07-03T09:32:36 02:00</time>
      </trkpt>
      <trkpt lat="42.57719" lon="2.12037">
        <ele>1637</ele>
        <time>2020-07-03T09:32:41 02:00</time>
      </trkpt>
      <trkpt lat="42.57672" lon="2.12042">
        <ele>1646</ele>
        <time>2020-07-03T09:32:46 02:00</time>
      </trkpt>
      <trkpt lat="42.57648" lon="2.12057">
        <ele>1652</ele>
        <time>2020-07-03T09:32:51 02:00</time>
      </trkpt>
      <trkpt lat="42.57614" lon="2.11998">
        <ele>1651</ele>
        <time>2020-07-03T09:32:56 02:00</time>
      </trkpt>
      <trkpt lat="42.57586" lon="2.11973">
        <ele>1657</ele>
        <time>2020-07-03T09:33:01 02:00</time>
      </trkpt>
      <trkpt lat="42.57552" lon="2.11955">
        <ele>1663</ele>
        <time>2020-07-03T09:33:06 02:00</time>
      </trkpt>
      <trkpt lat="42.57535" lon="2.11907">
        <ele>1664</ele>
        <time>2020-07-03T09:33:11 02:00</time>
      </trkpt>
      <trkpt lat="42.57476" lon="2.11861">
        <ele>1671</ele>
        <time>2020-07-03T09:33:16 02:00</time>
      </trkpt>
      <trkpt lat="42.57463" lon="2.11864">
        <ele>1674</ele>
        <time>2020-07-03T09:33:21 02:00</time>
      </trkpt>
      <trkpt lat="42.57495" lon="2.11928">
        <ele>1676</ele>
        <time>2020-07-03T09:33:26 02:00</time>
      </trkpt>
      <trkpt lat="42.57527" lon="2.12045">
        <ele>1687</ele>
        <time>2020-07-03T09:33:31 02:00</time>
      </trkpt>
      <trkpt lat="42.57585" lon="2.12307">
        <ele>1740</ele>
        <time>2020-07-03T09:33:36 02:00</time>
      </trkpt>
      <trkpt lat="42.57623" lon="2.12401">
        <ele>1763</ele>
        <time>2020-07-03T09:33:41 02:00</time>
      </trkpt>
      <trkpt lat="42.5763" lon="2.12558">
        <ele>1791</ele>
        <time>2020-07-03T09:33:46 02:00</time>
      </trkpt>
      <trkpt lat="42.57568" lon="2.12669">
        <ele>1810</ele>
        <time>2020-07-03T09:33:51 02:00</time>
      </trkpt>
      <trkpt lat="42.57507" lon="2.12759">
        <ele>1830</ele>
        <time>2020-07-03T09:33:56 02:00</time>
      </trkpt>
      <trkpt lat="42.57447" lon="2.12852">
        <ele>1852</ele>
        <time>2020-07-03T09:34:01 02:00</time>
      </trkpt>
      <trkpt lat="42.57447" lon="2.12893">
        <ele>1852</ele>
        <time>2020-07-03T09:34:06 02:00</time>
      </trkpt>
      <trkpt lat="42.57422" lon="2.12962">
        <ele>1860</ele>
        <time>2020-07-03T09:34:11 02:00</time>
      </trkpt>
      <trkpt lat="42.57414" lon="2.13021">
        <ele>1864</ele>
        <time>2020-07-03T09:34:16 02:00</time>
      </trkpt>
      <trkpt lat="42.57417" lon="2.1308">
        <ele>1867</ele>
        <time>2020-07-03T09:34:21 02:00</time>
      </trkpt>
      <trkpt lat="42.5743" lon="2.13144">
        <ele>1871</ele>
        <time>2020-07-03T09:34:26 02:00</time>
      </trkpt>
      <trkpt lat="42.57441" lon="2.13177">
        <ele>1873</ele>
        <time>2020-07-03T09:34:31 02:00</time>
      </trkpt>
      <trkpt lat="42.57467" lon="2.13165">
        <ele>1868</ele>
        <time>2020-07-03T09:34:36 02:00</time>
      </trkpt>
      <trkpt lat="42.57491" lon="2.13175">
        <ele>1867</ele>
        <time>2020-07-03T09:34:41 02:00</time>
      </trkpt>
      <trkpt lat="42.57512" lon="2.13156">
        <ele>1863</ele>
        <time>2020-07-03T09:34:46 02:00</time>
      </trkpt>
      <trkpt lat="42.57564" lon="2.13104">
        <ele>1856</ele>
        <time>2020-07-03T09:34:51 02:00</time>
      </trkpt>
      <trkpt lat="42.57591" lon="2.13082">
        <ele>1854</ele>
        <time>2020-07-03T09:34:56 02:00</time>
      </trkpt>
      <trkpt lat="42.57632" lon="2.1304">
        <ele>1851</ele>
        <time>2020-07-03T09:35:01 02:00</time>
      </trkpt>
      <trkpt lat="42.57706" lon="2.13039">
        <ele>1847</ele>
        <time>2020-07-03T09:35:06 02:00</time>
      </trkpt>
      <trkpt lat="42.57776" lon="2.13015">
        <ele>1844</ele>
        <time>2020-07-03T09:35:11 02:00</time>
      </trkpt>
      <trkpt lat="42.57842" lon="2.13032">
        <ele>1845</ele>
        <time>2020-07-03T09:35:16 02:00</time>
      </trkpt>
      <trkpt lat="42.57943" lon="2.12966">
        <ele>1837</ele>
        <time>2020-07-03T09:35:21 02:00</time>
      </trkpt>
      <trkpt lat="42.58045" lon="2.12989">
        <ele>1842</ele>
        <time>2020-07-03T09:35:26 02:00</time>
      </trkpt>
      <trkpt lat="42.58067" lon="2.12991">
        <ele>1841</ele>
        <time>2020-07-03T09:35:31 02:00</time>
      </trkpt>
      <trkpt lat="42.58129" lon="2.13022">
        <ele>1843</ele>
        <time>2020-07-03T09:35:36 02:00</time>
      </trkpt>
      <trkpt lat="42.58178" lon="2.13063">
        <ele>1846</ele>
        <time>2020-07-03T09:35:41 02:00</time>
      </trkpt>
      <trkpt lat="42.58205" lon="2.1308">
        <ele>1846</ele>
        <time>2020-07-03T09:35:46 02:00</time>
      </trkpt>
      <trkpt lat="42.58259" lon="2.1312">
        <ele>1847</ele>
        <time>2020-07-03T09:35:51 02:00</time>
      </trkpt>
      <trkpt lat="42.58292" lon="2.13129">
        <ele>1845</ele>
        <time>2020-07-03T09:35:56 02:00</time>
      </trkpt>
      <trkpt lat="42.58362" lon="2.13176">
        <ele>1844</ele>
        <time>2020-07-03T09:36:01 02:00</time>
      </trkpt>
      <trkpt lat="42.58436" lon="2.13202">
        <ele>1842</ele>
        <time>2020-07-03T09:36:06 02:00</time>
      </trkpt>
      <trkpt lat="42.58491" lon="2.13236">
        <ele>1842</ele>
        <time>2020-07-03T09:36:11 02:00</time>
      </trkpt>
      <trkpt lat="42.58535" lon="2.13275">
        <ele>1841</ele>
        <time>2020-07-03T09:36:16 02:00</time>
      </trkpt>
      <trkpt lat="42.58589" lon="2.133">
        <ele>1839</ele>
        <time>2020-07-03T09:36:21 02:00</time>
      </trkpt>
      <trkpt lat="42.58653" lon="2.13309">
        <ele>1834</ele>
        <time>2020-07-03T09:36:26 02:00</time>
      </trkpt>
      <trkpt lat="42.58706" lon="2.13339">
        <ele>1832</ele>
        <time>2020-07-03T09:36:31 02:00</time>
      </trkpt>
      <trkpt lat="42.58793" lon="2.1341">
        <ele>1831</ele>
        <time>2020-07-03T09:36:36 02:00</time>
      </trkpt>
      <trkpt lat="42.58839" lon="2.13455">
        <ele>1830</ele>
        <time>2020-07-03T09:36:41 02:00</time>
      </trkpt>
      <trkpt lat="42.58866" lon="2.13459">
        <ele>1828</ele>
        <time>2020-07-03T09:36:46 02:00</time>
      </trkpt>
      <trkpt lat="42.58895" lon="2.13477">
        <ele>1825</ele>
        <time>2020-07-03T09:36:51 02:00</time>
      </trkpt>
      <trkpt lat="42.5896" lon="2.13547">
        <ele>1827</ele>
        <time>2020-07-03T09:36:56 02:00</time>
      </trkpt>
      <trkpt lat="42.59015" lon="2.13645">
        <ele>1827</ele>
        <time>2020-07-03T09:37:01 02:00</time>
      </trkpt>
      <trkpt lat="42.59047" lon="2.13677">
        <ele>1825</ele>
        <time>2020-07-03T09:37:06 02:00</time>
      </trkpt>
      <trkpt lat="42.59096" lon="2.13713">
        <ele>1821</ele>
        <time>2020-07-03T09:37:11 02:00</time>
      </trkpt>
      <trkpt lat="42.59185" lon="2.13792">
        <ele>1817</ele>
        <time>2020-07-03T09:37:16 02:00</time>
      </trkpt>
      <trkpt lat="42.59268" lon="2.13884">
        <ele>1810</ele>
        <time>2020-07-03T09:37:21 02:00</time>
      </trkpt>
      <trkpt lat="42.59317" lon="2.13964">
        <ele>1810</ele>
        <time>2020-07-03T09:37:26 02:00</time>
      </trkpt>
      <trkpt lat="42.59346" lon="2.13983">
        <ele>1810</ele>
        <time>2020-07-03T09:37:31 02:00</time>
      </trkpt>
      <trkpt lat="42.59392" lon="2.14004">
        <ele>1808</ele>
        <time>2020-07-03T09:37:36 02:00</time>
      </trkpt>
      <trkpt lat="42.5946" lon="2.14024">
        <ele>1808</ele>
        <time>2020-07-03T09:37:41 02:00</time>
      </trkpt>
      <trkpt lat="42.59506" lon="2.14013">
        <ele>1814</ele>
        <time>2020-07-03T09:37:46 02:00</time>
      </trkpt>
      <trkpt lat="42.59542" lon="2.13943">
        <ele>1817</ele>
        <time>2020-07-03T09:37:51 02:00</time>
      </trkpt>
      <trkpt lat="42.59592" lon="2.13882">
        <ele>1808</ele>
        <time>2020-07-03T09:37:56 02:00</time>
      </trkpt>
      <trkpt lat="42.59705" lon="2.13858">
        <ele>1795</ele>
        <time>2020-07-03T09:38:01 02:00</time>
      </trkpt>
      <trkpt lat="42.59726" lon="2.13912">
        <ele>1793</ele>
        <time>2020-07-03T09:38:06 02:00</time>
      </trkpt>
      <trkpt lat="42.59752" lon="2.13854">
        <ele>1788</ele>
        <time>2020-07-03T09:38:11 02:00</time>
      </trkpt>
      <trkpt lat="42.59761" lon="2.13788">
        <ele>1786</ele>
        <time>2020-07-03T09:38:16 02:00</time>
      </trkpt>
      <trkpt lat="42.59729" lon="2.13731">
        <ele>1780</ele>
        <time>2020-07-03T09:38:21 02:00</time>
      </trkpt>
      <trkpt lat="42.59724" lon="2.13699">
        <ele>1776</ele>
        <time>2020-07-03T09:38:26 02:00</time>
      </trkpt>
      <trkpt lat="42.5974" lon="2.13677">
        <ele>1774</ele>
        <time>2020-07-03T09:38:31 02:00</time>
      </trkpt>
      <trkpt lat="42.5976" lon="2.13685">
        <ele>1774</ele>
        <time>2020-07-03T09:38:36 02:00</time>
      </trkpt>
      <trkpt lat="42.59825" lon="2.13751">
        <ele>1768</ele>
        <time>2020-07-03T09:38:41 02:00</time>
      </trkpt>
      <trkpt lat="42.59857" lon="2.13764">
        <ele>1764</ele>
        <time>2020-07-03T09:38:46 02:00</time>
      </trkpt>
      <trkpt lat="42.59893" lon="2.13766">
        <ele>1760</ele>
        <time>2020-07-03T09:38:51 02:00</time>
      </trkpt>
      <trkpt lat="42.5991" lon="2.13734">
        <ele>1756</ele>
        <time>2020-07-03T09:38:56 02:00</time>
      </trkpt>
      <trkpt lat="42.59897" lon="2.1368">
        <ele>1753</ele>
        <time>2020-07-03T09:39:01 02:00</time>
      </trkpt>
      <trkpt lat="42.59908" lon="2.13665">
        <ele>1751</ele>
        <time>2020-07-03T09:39:06 02:00</time>
      </trkpt>
      <trkpt lat="42.59951" lon="2.13702">
        <ele>1750</ele>
        <time>2020-07-03T09:39:11 02:00</time>
      </trkpt>
      <trkpt lat="42.59959" lon="2.13728">
        <ele>1749</ele>
        <time>2020-07-03T09:39:16 02:00</time>
      </trkpt>
      <trkpt lat="42.59974" lon="2.13731">
        <ele>1747</ele>
        <time>2020-07-03T09:39:21 02:00</time>
      </trkpt>
      <trkpt lat="42.59984" lon="2.13766">
        <ele>1744</ele>
        <time>2020-07-03T09:39:26 02:00</time>
      </trkpt>
      <trkpt lat="42.60113" lon="2.13753">
        <ele>1724</ele>
        <time>2020-07-03T09:39:31 02:00</time>
      </trkpt>
      <trkpt lat="42.60203" lon="2.13745">
        <ele>1711</ele>
        <time>2020-07-03T09:39:36 02:00</time>
      </trkpt>
      <trkpt lat="42.60254" lon="2.1379">
        <ele>1707</ele>
        <time>2020-07-03T09:39:41 02:00</time>
      </trkpt>
      <trkpt lat="42.6026" lon="2.13798">
        <ele>1706</ele>
        <time>2020-07-03T09:39:46 02:00</time>
      </trkpt>
      <trkpt lat="42.60279" lon="2.13784">
        <ele>1704</ele>
        <time>2020-07-03T09:39:51 02:00</time>
      </trkpt>
      <trkpt lat="42.60296" lon="2.13768">
        <ele>1704</ele>
        <time>2020-07-03T09:39:56 02:00</time>
      </trkpt>
      <trkpt lat="42.60331" lon="2.13669">
        <ele>1698</ele>
        <time>2020-07-03T09:40:01 02:00</time>
      </trkpt>
      <trkpt lat="42.60349" lon="2.13622">
        <ele>1692</ele>
        <time>2020-07-03T09:40:06 02:00</time>
      </trkpt>
      <trkpt lat="42.60358" lon="2.13607">
        <ele>1687</ele>
        <time>2020-07-03T09:40:11 02:00</time>
      </trkpt>
      <trkpt lat="42.60373" lon="2.13607">
        <ele>1686</ele>
        <time>2020-07-03T09:40:16 02:00</time>
      </trkpt>
      <trkpt lat="42.60394" lon="2.13603">
        <ele>1683</ele>
        <time>2020-07-03T09:40:21 02:00</time>
      </trkpt>
      <trkpt lat="42.60422" lon="2.13607">
        <ele>1681</ele>
        <time>2020-07-03T09:40:26 02:00</time>
      </trkpt>
      <trkpt lat="42.6046" lon="2.13597">
        <ele>1676</ele>
        <time>2020-07-03T09:40:31 02:00</time>
      </trkpt>
      <trkpt lat="42.60499" lon="2.13606">
        <ele>1672</ele>
        <time>2020-07-03T09:40:36 02:00</time>
      </trkpt>
      <trkpt lat="42.60506" lon="2.13609">
        <ele>1673</ele>
        <time>2020-07-03T09:40:41 02:00</time>
      </trkpt>
      <trkpt lat="42.60512" lon="2.13599">
        <ele>1671</ele>
        <time>2020-07-03T09:40:46 02:00</time>
      </trkpt>
      <trkpt lat="42.60471" lon="2.1355">
        <ele>1661</ele>
        <time>2020-07-03T09:40:51 02:00</time>
      </trkpt>
      <trkpt lat="42.60453" lon="2.13541">
        <ele>1659</ele>
        <time>2020-07-03T09:40:56 02:00</time>
      </trkpt>
      <trkpt lat="42.60432" lon="2.13539">
        <ele>1661</ele>
        <time>2020-07-03T09:41:01 02:00</time>
      </trkpt>
      <trkpt lat="42.60428" lon="2.13528">
        <ele>1660</ele>
        <time>2020-07-03T09:41:06 02:00</time>
      </trkpt>
      <trkpt lat="42.60436" lon="2.13522">
        <ele>1657</ele>
        <time>2020-07-03T09:41:11 02:00</time>
      </trkpt>
      <trkpt lat="42.60468" lon="2.13511">
        <ele>1652</ele>
        <time>2020-07-03T09:41:16 02:00</time>
      </trkpt>
      <trkpt lat="42.60519" lon="2.13519">
        <ele>1649</ele>
        <time>2020-07-03T09:41:21 02:00</time>
      </trkpt>
      <trkpt lat="42.60671" lon="2.13464">
        <ele>1632</ele>
        <time>2020-07-03T09:41:26 02:00</time>
      </trkpt>
      <trkpt lat="42.60758" lon="2.13457">
        <ele>1624</ele>
        <time>2020-07-03T09:41:31 02:00</time>
      </trkpt>
      <trkpt lat="42.60698" lon="2.13433">
        <ele>1619</ele>
        <time>2020-07-03T09:41:36 02:00</time>
      </trkpt>
      <trkpt lat="42.60653" lon="2.13421">
        <ele>1615</ele>
        <time>2020-07-03T09:41:41 02:00</time>
      </trkpt>
      <trkpt lat="42.60659" lon="2.1341">
        <ele>1612</ele>
        <time>2020-07-03T09:41:46 02:00</time>
      </trkpt>
      <trkpt lat="42.60723" lon="2.13391">
        <ele>1604</ele>
        <time>2020-07-03T09:41:51 02:00</time>
      </trkpt>
      <trkpt lat="42.60789" lon="2.13377">
        <ele>1596</ele>
        <time>2020-07-03T09:41:56 02:00</time>
      </trkpt>
      <trkpt lat="42.60819" lon="2.13398">
        <ele>1591</ele>
        <time>2020-07-03T09:42:01 02:00</time>
      </trkpt>
      <trkpt lat="42.60841" lon="2.13451">
        <ele>1591</ele>
        <time>2020-07-03T09:42:06 02:00</time>
      </trkpt>
      <trkpt lat="42.60853" lon="2.1345">
        <ele>1586</ele>
        <time>2020-07-03T09:42:11 02:00</time>
      </trkpt>
      <trkpt lat="42.60847" lon="2.13422">
        <ele>1582</ele>
        <time>2020-07-03T09:42:16 02:00</time>
      </trkpt>
      <trkpt lat="42.60827" lon="2.13341">
        <ele>1578</ele>
        <time>2020-07-03T09:42:21 02:00</time>
      </trkpt>
      <trkpt lat="42.60805" lon="2.13293">
        <ele>1571</ele>
        <time>2020-07-03T09:42:26 02:00</time>
      </trkpt>
      <trkpt lat="42.60765" lon="2.13272">
        <ele>1567</ele>
        <time>2020-07-03T09:42:31 02:00</time>
      </trkpt>
      <trkpt lat="42.60742" lon="2.1327">
        <ele>1565</ele>
        <time>2020-07-03T09:42:36 02:00</time>
      </trkpt>
      <trkpt lat="42.60732" lon="2.13275">
        <ele>1566</ele>
        <time>2020-07-03T09:42:41 02:00</time>
      </trkpt>
      <trkpt lat="42.60721" lon="2.13284">
        <ele>1567</ele>
        <time>2020-07-03T09:42:46 02:00</time>
      </trkpt>
      <trkpt lat="42.60716" lon="2.13277">
        <ele>1563</ele>
        <time>2020-07-03T09:42:51 02:00</time>
      </trkpt>
      <trkpt lat="42.6072" lon="2.13263">
        <ele>1559</ele>
        <time>2020-07-03T09:42:56 02:00</time>
      </trkpt>
      <trkpt lat="42.60816" lon="2.13236">
        <ele>1549</ele>
        <time>2020-07-03T09:43:01 02:00</time>
      </trkpt>
      <trkpt lat="42.60841" lon="2.13245">
        <ele>1546</ele>
        <time>2020-07-03T09:43:06 02:00</time>
      </trkpt>
      <trkpt lat="42.60848" lon="2.13238">
        <ele>1541</ele>
        <time>2020-07-03T09:43:11 02:00</time>
      </trkpt>
      <trkpt lat="42.60794" lon="2.13195">
        <ele>1536</ele>
        <time>2020-07-03T09:43:16 02:00</time>
      </trkpt>
      <trkpt lat="42.60751" lon="2.13185">
        <ele>1532</ele>
        <time>2020-07-03T09:43:21 02:00</time>
      </trkpt>
      <trkpt lat="42.60731" lon="2.13182">
        <ele>1529</ele>
        <time>2020-07-03T09:43:26 02:00</time>
      </trkpt>
      <trkpt lat="42.60693" lon="2.1319">
        <ele>1528</ele>
        <time>2020-07-03T09:43:31 02:00</time>
      </trkpt>
      <trkpt lat="42.60639" lon="2.13191">
        <ele>1521</ele>
        <time>2020-07-03T09:43:36 02:00</time>
      </trkpt>
      <trkpt lat="42.60611" lon="2.13194">
        <ele>1517</ele>
        <time>2020-07-03T09:43:41 02:00</time>
      </trkpt>
      <trkpt lat="42.60579" lon="2.13195">
        <ele>1513</ele>
        <time>2020-07-03T09:43:46 02:00</time>
      </trkpt>
      <trkpt lat="42.60549" lon="2.13191">
        <ele>1508</ele>
        <time>2020-07-03T09:43:51 02:00</time>
      </trkpt>
      <trkpt lat="42.60496" lon="2.1317">
        <ele>1503</ele>
        <time>2020-07-03T09:43:56 02:00</time>
      </trkpt>
      <trkpt lat="42.60473" lon="2.1314">
        <ele>1497</ele>
        <time>2020-07-03T09:44:01 02:00</time>
      </trkpt>
      <trkpt lat="42.6045" lon="2.13091">
        <ele>1495</ele>
        <time>2020-07-03T09:44:06 02:00</time>
      </trkpt>
      <trkpt lat="42.60418" lon="2.1305">
        <ele>1491</ele>
        <time>2020-07-03T09:44:11 02:00</time>
      </trkpt>
      <trkpt lat="42.60381" lon="2.13013">
        <ele>1489</ele>
        <time>2020-07-03T09:44:16 02:00</time>
      </trkpt>
      <trkpt lat="42.60342" lon="2.12994">
        <ele>1491</ele>
        <time>2020-07-03T09:44:21 02:00</time>
      </trkpt>
      <trkpt lat="42.60283" lon="2.12949">
        <ele>1492</ele>
        <time>2020-07-03T09:44:26 02:00</time>
      </trkpt>
      <trkpt lat="42.60195" lon="2.12891">
        <ele>1501</ele>
        <time>2020-07-03T09:44:31 02:00</time>
      </trkpt>
      <trkpt lat="42.60094" lon="2.12854">
        <ele>1507</ele>
        <time>2020-07-03T09:44:36 02:00</time>
      </trkpt>
      <trkpt lat="42.59997" lon="2.12816">
        <ele>1507</ele>
        <time>2020-07-03T09:44:41 02:00</time>
      </trkpt>
      <trkpt lat="42.59946" lon="2.1281">
        <ele>1508</ele>
        <time>2020-07-03T09:44:46 02:00</time>
      </trkpt>
      <trkpt lat="42.59888" lon="2.12796">
        <ele>1510</ele>
        <time>2020-07-03T09:44:51 02:00</time>
      </trkpt>
      <trkpt lat="42.59854" lon="2.12783">
        <ele>1513</ele>
        <time>2020-07-03T09:44:56 02:00</time>
      </trkpt>
      <trkpt lat="42.59814" lon="2.12759">
        <ele>1512</ele>
        <time>2020-07-03T09:45:01 02:00</time>
      </trkpt>
      <trkpt lat="42.59743" lon="2.12687">
        <ele>1501</ele>
        <time>2020-07-03T09:45:06 02:00</time>
      </trkpt>
      <trkpt lat="42.59721" lon="2.12656">
        <ele>1498</ele>
        <time>2020-07-03T09:45:11 02:00</time>
      </trkpt>
      <trkpt lat="42.59655" lon="2.12581">
        <ele>1494</ele>
        <time>2020-07-03T09:45:16 02:00</time>
      </trkpt>
      <trkpt lat="42.59615" lon="2.1255">
        <ele>1493</ele>
        <time>2020-07-03T09:45:21 02:00</time>
      </trkpt>
      <trkpt lat="42.59561" lon="2.12523">
        <ele>1493</ele>
        <time>2020-07-03T09:45:26 02:00</time>
      </trkpt>
      <trkpt lat="42.59505" lon="2.12513">
        <ele>1494</ele>
        <time>2020-07-03T09:45:31 02:00</time>
      </trkpt>
      <trkpt lat="42.5944" lon="2.12483">
        <ele>1490</ele>
        <time>2020-07-03T09:45:36 02:00</time>
      </trkpt>
      <trkpt lat="42.59391" lon="2.12429">
        <ele>1487</ele>
        <time>2020-07-03T09:45:41 02:00</time>
      </trkpt>
      <trkpt lat="42.59348" lon="2.12399">
        <ele>1484</ele>
        <time>2020-07-03T09:45:46 02:00</time>
      </trkpt>
      <trkpt lat="42.59308" lon="2.1238">
        <ele>1483</ele>
        <time>2020-07-03T09:45:51 02:00</time>
      </trkpt>
      <trkpt lat="42.59265" lon="2.12363">
        <ele>1482</ele>
        <time>2020-07-03T09:45:56 02:00</time>
      </trkpt>
      <trkpt lat="42.59247" lon="2.12334">
        <ele>1479</ele>
        <time>2020-07-03T09:46:01 02:00</time>
      </trkpt>
      <trkpt lat="42.59258" lon="2.12299">
        <ele>1480</ele>
        <time>2020-07-03T09:46:06 02:00</time>
      </trkpt>
      <trkpt lat="42.59275" lon="2.12262">
        <ele>1481</ele>
        <time>2020-07-03T09:46:11 02:00</time>
      </trkpt>
      <trkpt lat="42.59208" lon="2.12236">
        <ele>1481</ele>
        <time>2020-07-03T09:46:16 02:00</time>
      </trkpt>
      <trkpt lat="42.59188" lon="2.12211">
        <ele>1481</ele>
        <time>2020-07-03T09:46:21 02:00</time>
      </trkpt>
      <trkpt lat="42.59147" lon="2.12108">
        <ele>1483</ele>
        <time>2020-07-03T09:46:26 02:00</time>
      </trkpt>
      <trkpt lat="42.59117" lon="2.12103">
        <ele>1481</ele>
        <time>2020-07-03T09:46:31 02:00</time>
      </trkpt>
      <trkpt lat="42.59096" lon="2.12071">
        <ele>1483</ele>
        <time>2020-07-03T09:46:36 02:00</time>
      </trkpt>
      <trkpt lat="42.59073" lon="2.12065">
        <ele>1482</ele>
        <time>2020-07-03T09:46:41 02:00</time>
      </trkpt>
      <trkpt lat="42.58974" lon="2.12071">
        <ele>1483</ele>
        <time>2020-07-03T09:46:46 02:00</time>
      </trkpt>
      <trkpt lat="42.58896" lon="2.11959">
        <ele>1487</ele>
        <time>2020-07-03T09:46:51 02:00</time>
      </trkpt>
      <trkpt lat="42.58781" lon="2.11891">
        <ele>1490</ele>
        <time>2020-07-03T09:46:56 02:00</time>
      </trkpt>
      <trkpt lat="42.58755" lon="2.11873">
        <ele>1490</ele>
        <time>2020-07-03T09:47:01 02:00</time>
      </trkpt>
      <trkpt lat="42.58737" lon="2.1187">
        <ele>1491</ele>
        <time>2020-07-03T09:47:06 02:00</time>
      </trkpt>
      <trkpt lat="42.58717" lon="2.11841">
        <ele>1494</ele>
        <time>2020-07-03T09:47:11 02:00</time>
      </trkpt>
      <trkpt lat="42.58698" lon="2.11852">
        <ele>1496</ele>
        <time>2020-07-03T09:47:16 02:00</time>
      </trkpt>
      <trkpt lat="42.587" lon="2.11867">
        <ele>1494</ele>
        <time>2020-07-03T09:47:21 02:00</time>
      </trkpt>
      <trkpt lat="42.58677" lon="2.11903">
        <ele>1493</ele>
        <time>2020-07-03T09:47:26 02:00</time>
      </trkpt>
      <trkpt lat="42.58655" lon="2.11905">
        <ele>1492</ele>
        <time>2020-07-03T09:47:31 02:00</time>
      </trkpt>
      <trkpt lat="42.58617" lon="2.11875">
        <ele>1492</ele>
        <time>2020-07-03T09:47:36 02:00</time>
      </trkpt>
      <trkpt lat="42.58574" lon="2.11868">
        <ele>1490</ele>
        <time>2020-07-03T09:47:41 02:00</time>
      </trkpt>
      <trkpt lat="42.58526" lon="2.11884">
        <ele>1493</ele>
        <time>2020-07-03T09:47:46 02:00</time>
      </trkpt>
      <trkpt lat="42.58522" lon="2.11875">
        <ele>1494</ele>
        <time>2020-07-03T09:47:51 02:00</time>
      </trkpt>
    </trkseg>
  </trk>
</gpx>